Wind_Speed
11 12 12 13 14 15 15 16 16 17 17 17 16 16 16 16 16 16 16 16 18 17 12 7 7 6 7 7 7 8 8 9 8 5 5 5 3 3 2 1 1 2 2 1 4 8 6 4 4 5 5 2 1 0 1 1 1 2 2 3 3 2 2 3 5 4 1 1 5 8 9 11 8 7 5 3 5 4 4 8 7 6 7 5 1 3 9 23
11 11 12 13 13 14 15 16 16 17 17 17 17 17 16 16 16 15 15 15 16 17 14 8 7 7 6 8 8 8 8 9 9 8 9 7 5 3 2 1 1 1 1 1 4 7 5 3 5 6 4 2 0 0 2 0 1 2 1 3 3 2 1 1 3 3 2 0 3 7 8 8 6 7 7 6 8 7 8 9 8 10 11 10 5 4 14 23
10 10 11 12 13 14 15 16 16 17 17 18 18 17 17 16 16 16 15 15 15 15 14 10 8 8 7 7 8 8 6 8 8 7 9 9 6 4 2 0 0 1 1 1 4 5 3 3 8 6 3 1 1 0 1 0 1 1 1 4 2 0 2 2 4 4 3 0 2 6 6 6 5 5 7 7 6 8 12 11 9 12 16 13 10 11 18 23
10 10 11 12 13 14 14 15 16 16 17 17 17 17 17 17 16 16 15 15 14 14 13 10 9 8 6 6 7 6 3 5 4 4 9 11 7 4 2 0 1 1 0 1 3 3 3 6 7 3 2 2 1 1 2 1 1 1 2 4 1 1 3 2 4 4 2 1 3 5 5 6 4 4 6 6 6 9 13 14 13 15 17 13 13 15 20 24
10 11 11 12 13 14 14 14 15 16 16 17 17 17 17 17 17 16 16 15 14 13 13 10 10 9 7 5 4 4 2 2 2 4 9 10 7 4 2 1 1 0 1 2 3 5 5 6 4 1 1 2 2 2 2 2 1 2 2 2 1 2 3 0 2 2 3 1 2 5 6 5 4 4 9 9 11 10 6 10 14 15 12 12 15 17 21 23
11 11 12 13 13 14 14 14 15 15 16 16 17 17 17 17 17 17 16 15 14 13 12 10 9 8 6 3 3 4 3 3 1 5 8 7 7 4 2 1 0 1 1 2 3 4 4 3 3 3 1 2 4 3 2 2 1 3 2 1 2 3 3 1 1 1 3 4 4 5 3 3 5 7 9 13 19 10 4 1 6 9 7 12 17 18 20 22
12 12 13 13 14 14 14 15 15 15 16 16 16 17 17 17 17 17 16 16 15 13 12 10 7 6 3 0 3 3 2 4 2 6 7 6 7 5 3 1 1 1 2 3 3 3 2 2 3 3 2 2 3 3 2 2 2 4 2 2 2 3 5 1 1 1 3 5 2 1 1 4 9 6 2 12 21 12 2 4 1 3 6 12 15 17 20 22
13 13 14 14 14 15 15 15 16 16 16 16 17 17 18 18 17 16 16 16 15 14 12 8 5 4 1 3 2 1 2 4 4 7 8 7 7 6 4 2 2 2 3 4 2 3 2 1 2 3 3 1 3 5 3 2 4 5 3 2 2 2 5 2 1 2 3 4 1 1 6 5 6 2 4 16 19 14 8 4 3 4 7 11 14 17 18 19
15 15 15 15 16 16 16 16 16 16 17 17 17 17 18 18 17 17 17 16 15 14 10 6 4 3 4 3 1 3 3 3 5 6 6 7 7 6 5 3 4 4 4 3 3 3 2 1 2 3 3 0 3 4 3 4 3 5 3 2 3 2 3 1 3 3 2 3 1 5 10 4 1 3 10 18 14 11 10 7 6 7 9 12 13 16 17 17
16 16 16 17 17 17 17 18 18 18 18 18 18 17 18 19 18 18 17 17 17 13 8 5 4 3 5 4 2 3 2 3 4 5 5 5 6 6 5 5 5 6 5 3 4 2 1 3 4 2 1 1 3 2 2 3 1 1 2 1 4 4 2 0 2 1 1 3 4 7 11 4 3 2 11 8 2 5 9 8 8 9 11 12 13 14 16 17
17 18 18 18 18 19 19 19 19 20 20 19 19 18 18 19 19 19 18 19 17 12 7 5 4 4 6 5 4 3 2 3 4 4 4 4 5 6 5 6 6 6 6 3 4 4 4 7 8 3 1 2 4 2 1 1 2 1 1 3 5 5 5 5 5 2 2 3 5 7 10 6 3 5 15 4 5 5 8 9 9 11 12 12 13 13 12 15
18 18 19 20 20 20 20 20 20 21 21 21 20 19 19 19 20 20 20 20 16 9 5 4 4 5 5 3 6 6 4 4 4 3 4 4 5 6 5 6 6 7 6 3 4 6 7 10 10 3 0 2 3 1 1 1 1 0 1 4 4 5 7 7 4 2 4 3 4 4 8 9 9 15 18 5 5 5 6 9 9 11 12 10 12 11 10 13
19 19 20 21 21 21 21 21 21 22 22 22 22 21 20 20 20 20 21 20 14 5 4 4 4 7 5 2 5 8 8 6 5 3 4 5 5 5 4 4 5 6 5 5 7 7 8 10 7 2 2 2 1 1 2 3 1 1 2 3 3 5 5 5 3 3 5 3 4 3 8 8 12 20 16 5 7 6 6 10 9 10 10 9 10 10 10 13
19 20 21 22 23 23 22 22 22 22 23 23 22 21 20 21 20 21 21 17 9 2 4 4 5 8 4 3 3 7 9 8 6 5 5 7 7 5 5 4 4 4 4 6 9 8 8 8 6 4 2 1 1 3 2 2 1 1 1 1 2 4 1 4 3 5 6 2 3 4 7 10 8 13 10 6 8 8 8 12 10 9 9 9 9 10 11 13
20 21 21 23 23 24 24 23 22 23 23 23 22 21 20 21 20 21 19 12 4 2 4 4 7 6 2 4 2 5 8 7 8 8 7 8 8 5 5 6 6 7 7 7 9 8 8 7 4 3 2 1 2 3 3 2 2 0 2 3 2 3 2 3 5 7 5 2 4 6 6 12 10 5 5 4 6 9 11 12 11 10 10 10 10 10 11 12
20 20 22 23 24 25 24 23 22 22 23 23 22 21 19 20 20 19 15 7 2 3 3 4 7 5 3 2 2 4 7 7 9 10 9 9 9 6 7 8 8 8 8 8 9 8 6 4 1 1 1 2 3 3 3 4 3 2 3 5 3 4 3 1 5 4 3 2 7 9 7 10 9 2 4 3 6 8 10 12 13 12 11 10 10 10 10 11
19 20 22 23 24 25 25 24 22 22 23 23 23 21 19 19 19 15 9 3 1 3 3 3 6 4 3 1 2 3 5 8 11 11 10 9 9 9 9 7 5 6 7 7 6 4 2 2 1 1 1 1 1 2 4 6 6 3 2 4 4 4 5 3 2 3 3 4 8 10 10 15 15 8 3 6 8 8 9 13 15 12 10 10 10 10 11 11
18 20 21 21 22 24 25 24 22 21 23 22 21 21 19 17 14 8 2 2 3 3 2 2 4 3 3 3 3 2 4 7 10 10 10 8 9 12 8 4 4 5 5 3 2 1 1 1 1 3 2 2 3 5 6 6 5 4 4 5 5 5 7 7 3 3 5 5 8 10 12 18 22 18 13 8 10 10 13 14 16 13 12 11 10 11 11 12
17 19 20 20 20 22 24 23 21 21 22 21 19 18 16 11 8 3 3 4 3 3 1 2 5 2 2 2 1 1 3 6 8 9 10 9 10 11 5 5 5 4 3 2 3 3 1 1 2 3 5 8 8 10 12 7 3 5 5 5 7 6 8 7 2 2 3 4 9 13 14 18 21 20 20 13 8 10 15 16 16 13 12 12 12 12 11 13
16 18 19 20 20 22 24 23 21 20 19 19 16 13 9 4 3 1 1 3 5 4 2 2 5 3 3 2 2 3 4 5 5 6 10 10 10 9 4 4 3 2 4 3 3 2 1 3 6 9 10 9 11 13 10 3 1 3 3 4 7 8 10 6 4 3 2 4 11 13 14 18 21 20 20 16 8 10 16 18 18 15 12 12 13 13 13 15
15 17 18 20 21 22 24 22 21 18 15 13 11 7 2 1 2 2 1 5 7 5 4 3 3 6 7 3 5 7 3 3 4 5 11 11 9 8 5 4 5 5 4 2 3 2 1 6 12 13 8 3 4 7 4 1 2 4 5 5 7 8 9 4 4 3 3 3 9 10 12 17 19 20 19 16 14 17 19 18 20 18 13 11 14 15 14 12
14 16 18 21 21 21 22 21 18 15 11 8 5 2 1 2 3 2 0 5 6 4 5 3 2 8 8 6 7 7 2 3 4 6 11 10 5 5 4 6 7 5 3 4 3 2 4 10 14 6 4 5 3 3 5 6 5 4 4 4 6 5 6 3 3 3 4 4 7 7 11 16 18 20 22 19 16 20 20 17 19 18 14 13 14 14 12 11
13 15 18 21 20 19 19 18 14 11 8 6 3 1 2 3 4 5 3 4 5 3 3 4 5 7 6 6 7 9 6 6 5 6 13 12 4 2 4 7 7 2 4 8 8 6 5 8 7 3 7 7 3 3 6 4 4 6 4 5 7 3 2 4 0 3 4 4 6 9 11 14 16 18 20 17 13 18 20 16 17 16 16 17 12 10 11 13
12 14 17 20 19 17 16 15 10 7 7 5 3 1 3 5 6 5 2 3 4 2 3 5 5 6 5 3 8 13 7 4 3 4 13 15 6 3 5 6 5 3 7 11 10 9 8 3 2 5 5 7 4 4 7 6 5 6 6 9 10 4 4 5 2 2 4 4 3 8 12 10 10 12 12 5 3 11 14 12 15 15 15 15 11 10 12 14
12 13 15 18 18 17 17 12 6 6 8 4 1 1 4 6 6 4 1 3 3 1 2 4 4 5 6 3 7 9 2 2 2 2 11 11 5 5 3 2 4 8 8 8 8 10 9 2 5 4 3 5 5 5 8 8 6 5 8 12 12 7 4 2 3 4 5 4 1 3 10 7 4 7 7 1 1 7 6 6 13 13 11 11 11 11 12 13
12 12 13 15 18 19 15 6 5 9 6 1 0 1 3 5 5 2 1 3 5 2 1 4 4 5 7 4 4 4 1 2 0 3 7 7 3 3 2 2 2 5 4 6 4 6 3 1 2 4 5 5 6 7 7 8 6 5 4 6 9 7 4 2 1 2 4 4 0 2 6 9 3 7 6 3 3 6 4 5 10 12 8 8 9 10 10 12
11 11 11 13 16 16 9 3 8 9 2 1 2 1 2 4 4 2 2 4 5 4 3 1 1 4 6 2 1 4 2 1 3 2 3 2 2 1 3 6 3 1 3 4 3 3 2 3 2 4 5 6 7 7 6 10 6 3 1 1 3 4 4 4 4 5 4 4 2 4 5 11 9 8 10 9 9 8 9 11 11 15 15 7 7 9 11 12
11 11 10 10 13 11 5 6 9 6 2 4 4 2 2 3 4 2 3 6 3 4 3 1 1 2 3 1 1 2 1 1 2 1 1 1 1 1 4 7 4 3 4 4 6 2 3 4 6 7 6 6 6 2 5 11 6 0 2 2 4 4 3 5 4 5 2 4 5 7 8 9 10 6 7 8 10 10 12 15 15 16 17 10 6 9 10 11
11 11 9 8 11 10 7 8 7 5 6 6 4 3 2 3 4 0 2 6 2 3 2 2 3 1 2 2 2 1 1 1 1 0 1 1 1 1 3 3 3 4 3 3 5 1 2 2 4 6 7 6 3 4 1 7 4 3 5 5 6 4 4 3 3 3 1 5 7 9 12 8 10 5 7 1 5 9 11 13 13 12 12 10 7 7 8 8
12 11 9 8 9 8 7 7 6 5 7 6 4 3 2 3 2 3 6 6 1 1 1 2 3 2 5 5 3 1 1 1 1 1 1 1 1 2 1 0 2 3 1 2 4 1 2 1 2 2 3 2 5 5 4 1 2 6 6 4 4 2 3 1 1 0 3 7 6 11 17 12 9 2 8 4 5 8 9 8 9 9 8 10 9 7 7 8
13 11 11 10 8 6 4 3 3 4 6 6 4 1 2 1 1 6 9 3 1 1 3 2 2 4 7 6 2 3 3 1 2 4 3 2 2 2 2 2 2 2 2 4 6 2 3 2 2 1 1 3 5 5 4 3 2 3 3 2 1 1 2 2 2 2 6 7 2 6 12 14 11 4 6 4 3 7 8 7 8 8 7 8 7 5 6 7
14 13 14 13 11 9 6 5 3 5 7 6 3 1 2 2 5 7 3 2 0 3 3 2 2 4 6 2 0 2 2 1 3 5 4 3 4 6 5 5 4 3 4 5 4 2 3 4 3 2 0 3 4 4 4 2 2 3 4 3 3 3 2 3 3 3 6 6 1 2 3 9 13 9 5 3 4 8 9 8 8 6 6 6 3 3 5 5
16 15 16 16 14 12 10 8 5 5 6 3 0 2 2 5 7 5 5 3 2 1 2 2 1 3 4 2 2 3 1 2 4 4 2 2 4 6 6 4 2 3 3 3 3 1 2 1 5 5 2 4 9 7 4 4 6 7 7 5 5 4 2 5 5 3 5 3 2 4 2 6 9 7 12 16 14 12 10 10 9 6 6 4 1 1 3 4
18 17 19 20 17 15 12 9 8 5 2 1 2 3 4 9 5 5 8 7 1 2 3 2 2 3 3 2 3 4 4 4 5 5 4 3 4 6 7 7 5 2 1 1 2 2 5 5 5 7 2 6 12 6 0 4 7 6 4 2 4 4 4 6 4 4 6 5 2 4 3 5 4 1 8 14 14 11 8 10 8 6 7 4 1 1 3 4
20 21 22 22 21 18 15 13 10 6 3 3 2 3 7 10 2 3 5 4 1 1 2 2 2 4 3 2 2 4 5 4 4 5 6 6 6 6 6 8 9 5 2 3 2 2 6 6 2 2 1 6 9 2 3 5 5 3 1 1 4 4 5 5 3 2 3 6 4 5 5 7 3 0 2 3 5 8 8 9 8 8 10 6 4 5 5 5
24 23 24 26 27 23 20 17 13 9 8 5 3 6 10 7 1 1 3 3 3 3 4 1 2 4 4 3 3 4 2 2 3 4 5 6 7 6 3 4 9 12 9 6 3 2 4 3 2 1 2 4 3 1 2 2 3 4 3 4 3 0 2 5 3 1 1 6 7 4 7 9 5 3 5 6 6 8 8 9 10 11 12 7 6 7 7 7
27 24 24 28 32 27 23 21 16 11 7 6 7 10 8 5 3 4 3 2 1 3 5 5 4 5 5 4 4 6 4 2 4 5 4 3 5 6 7 4 7 15 16 10 4 4 4 3 2 3 2 1 2 2 1 2 0 4 4 5 3 2 1 2 2 1 1 7 8 7 11 12 9 5 4 7 9 9 11 11 10 10 10 9 9 10 9 7
29 22 20 28 35 31 25 24 20 13 5 4 11 14 6 4 5 5 5 4 2 3 6 7 5 5 6 5 3 6 6 5 6 5 4 4 4 6 9 6 6 14 20 14 5 3 2 3 3 1 1 3 2 3 3 1 1 1 1 1 1 2 3 2 2 3 6 8 8 14 18 15 11 7 4 9 12 12 13 11 9 10 11 10 10 10 9 6
26 13 11 23 35 33 30 29 20 10 5 5 12 12 6 5 4 3 6 6 3 4 8 9 5 4 5 4 2 4 7 7 7 6 5 5 4 5 9 7 7 11 16 15 8 2 2 4 3 1 2 2 1 4 6 5 2 1 1 1 1 2 3 2 2 2 5 7 8 16 20 14 6 5 7 11 12 12 11 9 9 12 13 11 9 8 8 7
18 5 4 21 37 36 35 29 14 7 7 8 11 8 2 3 4 4 6 6 3 3 7 9 7 5 5 3 1 3 6 6 5 6 5 4 4 4 7 7 4 4 6 9 7 1 3 3 4 1 1 2 4 7 10 10 8 5 5 6 5 2 0 2 2 2 3 6 7 9 15 13 1 7 8 9 8 9 9 8 9 10 11 11 9 8 7 7
11 5 3 26 43 41 34 19 7 7 7 9 11 7 3 3 4 4 3 4 3 2 2 5 6 8 8 5 2 3 4 5 6 6 4 5 5 4 7 9 7 7 6 4 6 4 3 4 5 3 2 6 7 6 6 4 4 6 7 9 10 8 4 3 5 3 2 5 8 6 11 15 3 6 5 5 4 5 8 8 8 8 10 11 9 9 8 7
5 5 7 31 49 44 28 11 6 8 6 8 8 5 4 4 3 4 4 4 3 2 0 2 5 7 8 7 4 4 5 5 6 7 5 6 9 7 6 6 7 9 8 4 5 4 3 2 5 6 6 6 4 1 2 1 0 2 4 6 8 8 8 8 7 4 3 4 6 2 7 14 3 7 3 3 5 5 6 8 7 7 8 8 7 8 7 7
3 3 8 34 53 41 18 7 7 8 7 6 4 3 4 3 3 4 5 6 5 3 3 4 4 7 8 6 4 4 6 6 6 6 3 4 9 8 4 6 8 7 4 3 3 2 2 2 5 7 6 3 1 4 2 0 2 3 6 7 8 8 10 8 4 2 3 6 6 3 6 13 2 6 1 3 4 4 4 5 7 6 5 5 6 6 6 7
2 0 3 26 47 35 13 7 9 11 10 6 6 7 4 2 6 8 7 8 8 6 8 8 6 6 6 4 5 6 7 6 7 6 6 7 5 3 6 10 12 8 5 5 5 5 5 4 5 5 6 5 4 3 3 1 4 5 5 8 10 11 11 4 1 1 5 13 14 7 8 14 4 3 3 3 4 4 4 5 6 6 4 5 5 5 6 7
2 1 2 12 28 20 7 5 6 9 12 12 12 12 8 5 8 11 10 10 10 7 6 7 4 4 5 5 5 7 7 8 9 6 7 9 4 0 5 12 16 13 8 4 5 7 6 6 8 8 8 9 10 9 4 3 6 5 3 9 13 15 17 10 4 6 10 14 14 9 12 15 10 11 14 8 6 9 6 6 6 6 5 6 6 5 6 6
1 3 1 3 10 9 6 4 3 4 9 13 10 8 11 11 6 5 9 11 11 7 2 2 1 3 7 8 8 10 11 13 11 7 8 9 3 1 2 7 11 9 3 1 5 7 3 5 12 15 14 13 14 15 5 5 6 6 6 12 15 18 21 14 8 11 9 5 8 13 18 18 16 22 25 19 18 18 11 5 6 7 7 8 7 7 7 6
3 3 4 4 4 6 7 7 7 5 5 8 7 5 13 16 8 3 7 9 10 9 4 3 4 5 8 12 13 15 16 16 14 14 17 13 5 1 1 2 4 3 2 0 3 3 2 6 13 18 21 20 19 22 14 6 8 9 9 12 15 17 19 17 18 15 5 3 9 19 23 20 17 21 27 26 22 17 14 14 11 7 7 8 7 8 10 9
4 3 4 7 6 6 9 12 14 13 10 9 7 7 12 16 13 10 9 5 4 8 7 6 10 15 18 18 15 14 15 14 13 15 18 15 8 2 1 1 3 1 1 1 2 1 3 6 11 15 20 21 20 23 22 13 8 7 9 12 14 17 21 23 24 16 8 8 16 19 23 22 17 21 27 25 19 15 16 17 12 7 7 7 7 8 10 10
4 3 2 5 6 8 14 18 18 18 18 13 9 9 13 16 17 15 8 4 2 8 11 11 15 22 26 23 16 12 10 11 13 13 13 13 9 4 2 5 2 2 1 2 1 1 3 6 11 14 17 19 19 21 24 19 11 9 10 10 13 19 22 21 19 17 17 21 18 14 20 22 18 22 24 18 15 14 14 16 14 11 12 14 14 13 12 10
4 3 2 4 5 5 10 14 13 13 15 14 10 10 14 17 17 14 9 9 9 8 12 18 21 22 23 19 15 14 15 16 18 16 12 11 8 5 5 6 2 2 1 3 1 2 4 6 11 12 12 14 17 20 22 18 14 15 13 12 18 23 17 14 15 15 17 20 17 14 17 17 17 22 21 17 18 16 15 19 22 18 17 20 19 16 16 14
9 10 8 5 4 4 7 9 10 10 10 11 12 12 14 18 18 16 13 14 17 14 14 21 25 21 14 9 12 19 23 24 24 22 18 13 6 4 4 4 3 3 3 3 2 3 4 4 6 10 10 10 15 20 19 12 7 8 12 19 28 27 17 15 18 15 13 15 17 16 14 14 17 20 19 19 20 20 21 22 22 19 17 16 15 16 18 17
10 11 9 7 4 4 7 7 10 11 8 10 16 17 17 19 19 18 13 10 17 20 17 17 19 15 9 10 18 24 25 23 22 20 17 9 3 5 5 5 7 7 6 5 3 3 5 5 5 8 9 11 16 18 15 7 3 5 14 24 27 23 20 21 22 20 17 14 13 13 13 16 19 18 18 20 20 19 20 19 18 17 15 12 14 18 19 19
Wind_Direction
11 10 9 9 8 8 9 11 12 12 13 13 13 13 14 14 13 13 10 6 3 3 0 352 337 301 267 259 255 261 288 319 321 280 240 237 218 197 210 229 285 304 327 321 178 174 174 185 186 170 172 167 348 2 134 32 11 237 224 232 248 228 218 193 192 197 316 41 160 175 191 204 192 166 168 162 205 210 195 210 218 233 241 237 305 15 157 157
5 5 5 5 4 5 4 6 7 7 7 7 8 7 8 8 8 7 8 6 1 360 359 355 345 326 290 261 257 263 280 309 313 275 249 235 212 197 187 199 239 260 303 262 189 190 211 204 173 169 178 178 352 234 178 345 296 232 205 247 252 225 215 195 215 212 211 275 155 183 198 214 208 157 159 204 207 192 217 220 214 237 236 219 212 178 163 162
358 358 359 358 0 1 1 1 1 2 2 2 3 3 4 3 4 3 3 3 0 358 355 349 344 336 310 275 257 260 286 311 306 268 233 214 202 194 174 156 272 225 179 192 185 198 235 164 155 163 173 172 77 258 197 349 279 215 215 250 247 271 279 229 223 221 196 198 169 188 189 215 223 144 160 216 220 199 220 222 202 224 232 212 180 168 170 170
353 350 350 351 353 354 355 356 355 356 356 357 358 358 359 359 0 0 359 359 357 355 352 344 338 339 323 293 258 250 296 302 279 210 195 196 198 197 199 272 347 303 143 164 151 150 149 134 142 159 182 168 96 267 223 36 321 172 218 265 51 71 274 216 203 216 183 242 235 173 162 213 209 152 187 205 226 228 227 224 211 220 225 198 165 166 174 177
349 345 346 346 348 350 349 348 349 350 350 351 352 353 354 355 356 357 356 355 354 352 349 339 329 335 332 305 251 227 263 275 230 170 179 185 193 193 203 259 321 280 165 182 132 124 133 127 135 153 196 174 155 206 193 73 35 195 211 301 62 174 255 190 160 199 158 183 211 167 174 197 144 180 215 204 227 243 231 223 221 228 222 175 165 170 175 182
342 341 342 342 343 344 342 342 343 344 345 346 347 349 350 350 352 352 352 351 350 347 343 333 322 329 334 311 219 191 230 267 137 177 186 185 198 197 215 266 318 200 182 202 150 138 130 130 183 186 177 172 186 199 151 123 252 245 211 190 209 203 243 332 90 164 170 190 193 184 190 156 164 219 221 217 234 243 65 107 223 240 219 161 164 170 176 187
337 335 335 336 337 337 337 336 337 338 339 341 342 345 346 347 348 348 348 347 346 344 338 326 313 319 332 177 173 154 240 275 241 202 203 202 208 209 235 267 221 194 173 202 180 169 144 152 207 195 175 162 199 196 134 156 219 256 230 181 197 192 227 265 62 179 198 222 212 151 214 189 212 229 214 229 238 237 115 87 103 238 179 157 165 175 184 189
333 331 330 331 330 331 331 330 332 332 332 334 337 341 343 343 344 344 343 342 342 340 334 318 305 304 246 156 176 210 251 258 231 213 212 212 214 217 233 245 225 198 174 198 175 177 187 161 180 189 213 190 188 176 150 189 198 222 223 177 174 195 231 243 277 233 206 240 317 204 238 223 221 270 279 248 244 235 209 147 133 167 164 172 182 185 189 192
329 328 328 327 325 325 325 326 327 326 328 329 332 336 339 340 340 339 337 337 338 336 329 306 291 262 206 157 166 265 244 223 210 209 210 215 219 219 227 232 216 198 180 155 130 169 206 213 169 196 238 1 187 170 170 224 209 207 199 174 202 226 245 231 242 221 188 241 162 229 249 235 168 324 269 254 251 231 205 185 174 172 181 191 193 191 192 195
325 325 325 323 322 321 321 322 323 323 323 323 326 331 335 336 336 335 333 333 334 331 318 283 263 225 199 169 182 252 242 200 202 206 214 222 220 216 222 221 207 200 192 142 140 167 172 177 144 157 237 93 197 166 164 231 353 170 180 252 247 262 282 262 259 198 204 245 189 235 261 252 110 272 258 255 265 203 186 193 191 190 203 200 198 198 196 199
322 322 322 321 319 319 319 320 320 320 319 319 323 326 331 333 332 332 331 331 333 327 299 259 244 218 193 187 216 237 213 200 211 213 217 218 212 212 213 213 208 203 193 148 149 144 128 153 136 125 252 139 176 176 222 237 31 68 208 265 246 261 266 235 249 244 226 232 192 232 266 259 115 226 244 223 101 171 182 197 196 206 216 206 203 201 199 205
320 320 320 318 318 318 319 320 319 318 316 317 318 323 329 329 329 330 328 331 334 323 272 231 229 199 171 199 232 229 216 205 210 214 217 209 202 206 205 205 203 200 199 168 152 146 138 150 147 139 324 156 173 185 187 132 35 133 214 268 233 246 258 220 215 201 201 210 175 215 267 241 196 226 239 188 124 174 189 208 202 211 219 211 209 203 204 207
319 320 319 317 317 317 318 320 320 318 315 314 316 322 326 326 328 327 327 331 334 316 228 212 207 180 171 240 227 219 222 214 212 222 214 199 187 189 186 183 184 192 204 182 151 140 145 156 157 113 96 196 208 125 136 102 349 211 182 289 269 255 250 179 149 146 185 189 154 202 280 249 203 224 234 147 146 178 200 221 211 212 217 212 210 209 211 205
320 320 319 318 318 317 318 320 320 319 316 313 314 318 323 325 325 324 326 331 334 289 205 201 181 166 183 260 217 212 216 213 218 216 195 186 173 157 146 138 149 155 158 155 141 130 143 150 141 117 94 316 89 134 163 138 231 229 183 253 251 262 232 142 151 170 180 168 158 198 272 274 233 218 214 156 171 191 222 231 218 213 211 214 213 212 217 208
319 319 319 319 319 318 318 320 320 320 316 313 314 317 322 322 321 322 324 329 334 238 193 184 176 163 233 257 221 209 206 209 216 209 200 189 175 150 136 134 122 117 117 126 127 120 126 133 138 130 97 10 155 179 228 210 185 179 256 242 196 237 245 154 172 191 200 118 179 205 248 272 271 223 167 147 182 201 234 239 228 220 210 213 217 215 219 215
318 318 319 319 319 318 319 320 320 319 315 313 314 316 319 320 319 318 318 322 303 210 173 181 181 181 278 254 163 200 204 211 210 205 201 191 191 176 143 134 112 105 108 109 114 111 105 106 81 343 132 199 207 218 260 256 223 176 243 263 236 229 270 206 162 195 241 136 190 223 256 275 274 228 122 151 192 202 234 247 236 225 215 215 218 218 217 214
320 320 320 320 318 317 318 319 319 319 314 312 315 316 319 319 313 312 313 302 227 187 174 190 172 186 267 177 162 219 199 201 199 194 191 187 194 178 149 126 97 99 107 106 115 113 59 59 89 242 184 201 210 207 250 260 248 201 199 257 254 238 264 264 174 144 179 202 215 221 242 262 264 260 212 176 184 202 230 247 244 229 214 216 219 220 214 211
323 323 325 323 320 318 317 316 318 318 313 313 316 317 318 314 306 304 289 162 138 151 174 160 160 207 245 178 197 214 163 184 186 182 182 172 173 172 158 128 122 128 119 107 158 182 310 49 225 251 209 199 196 192 223 247 255 251 232 250 269 245 240 249 243 155 157 205 234 221 231 255 264 268 263 220 177 208 240 248 250 238 216 216 219 220 215 211
326 327 329 328 324 320 316 316 319 318 313 311 315 319 317 311 297 266 178 154 156 201 231 172 187 239 279 224 238 133 147 165 171 176 174 160 160 167 155 122 130 146 149 184 189 167 216 194 203 246 225 212 202 202 224 241 258 268 262 260 269 262 254 249 182 142 177 223 243 235 238 255 264 268 271 260 186 207 248 254 255 245 221 219 222 219 214 215
327 328 330 329 324 320 320 322 320 318 316 315 325 329 317 312 301 273 155 197 221 252 309 187 204 265 286 257 150 161 166 163 176 187 180 171 159 155 143 122 126 187 198 200 171 140 237 226 225 237 232 216 206 210 230 271 347 255 253 249 253 257 267 261 115 110 173 244 253 245 246 258 266 268 269 270 244 230 247 252 255 246 225 223 226 221 212 219
324 325 328 328 324 321 324 328 324 320 318 320 334 332 285 163 274 296 333 260 245 250 271 235 224 268 267 233 169 168 157 185 204 194 185 178 162 165 172 163 183 206 202 141 109 119 197 227 238 240 235 209 207 208 210 200 190 229 235 249 256 249 263 274 98 121 160 221 258 256 259 260 262 267 267 263 258 255 250 247 254 251 235 226 226 224 216 217
319 322 326 327 323 320 324 331 328 324 321 319 326 315 153 148 224 216 86 278 266 232 249 262 255 264 257 234 203 172 151 233 216 190 181 169 174 205 173 171 205 208 145 123 151 183 207 236 244 234 109 92 86 163 196 212 206 215 225 248 262 255 272 291 89 112 166 219 268 276 277 269 264 266 265 255 247 255 256 248 254 257 247 237 227 221 213 213
312 318 326 328 326 322 325 330 328 326 331 337 350 52 129 142 159 147 157 274 284 221 209 222 230 244 237 233 206 176 196 229 217 192 174 163 174 216 171 189 208 178 160 188 196 195 209 245 255 104 120 151 134 140 184 206 208 208 206 232 249 244 270 268 74 104 185 224 289 294 281 269 261 259 260 254 240 253 264 260 258 257 250 248 235 213 204 210
308 315 324 330 328 327 331 328 324 331 333 338 349 160 163 154 140 139 190 274 275 241 226 220 223 233 224 212 182 183 208 223 211 190 170 171 163 146 194 200 185 203 214 203 201 218 231 239 86 96 147 182 172 160 188 207 218 211 211 229 244 245 226 246 342 350 235 218 279 294 285 263 237 238 250 253 226 256 268 270 265 256 246 248 240 215 207 213
304 309 323 329 328 331 333 323 320 337 333 334 312 177 160 160 144 133 256 273 249 255 276 219 207 218 201 139 157 176 204 222 211 161 169 183 168 141 185 169 196 228 211 176 196 238 248 201 118 123 137 183 190 198 203 208 222 225 220 229 244 263 252 227 26 339 281 247 202 317 305 287 186 199 236 233 237 260 259 262 269 263 238 228 234 226 212 217
297 300 314 326 328 330 330 320 326 332 329 355 320 174 160 173 161 147 264 272 244 204 160 192 185 187 172 133 140 153 200 243 169 108 164 193 194 156 186 143 205 249 169 142 193 243 252 75 103 149 150 176 209 230 205 187 220 241 219 229 239 251 259 219 166 269 274 279 271 30 303 288 226 185 210 202 230 256 251 247 266 272 251 203 215 222 206 216
287 287 301 320 328 330 334 323 322 329 325 354 347 248 202 198 196 220 270 275 252 171 137 196 208 169 157 144 172 159 215 229 94 110 157 188 185 147 214 191 169 216 152 147 215 226 132 103 109 154 160 181 216 240 185 169 211 244 89 69 182 191 213 200 196 232 269 315 289 188 229 274 272 211 210 224 227 241 255 256 257 265 268 242 203 209 206 214
275 275 290 313 321 323 324 307 315 327 309 335 348 268 239 218 223 248 266 267 266 118 122 179 101 112 118 103 184 144 290 324 125 165 52 31 191 140 226 219 183 166 165 191 222 219 98 155 171 164 176 203 215 258 157 175 205 311 80 76 108 126 157 165 202 240 276 323 267 191 181 263 275 194 192 241 234 231 246 252 250 251 262 265 223 206 207 211
263 265 272 293 310 310 300 299 301 296 302 326 336 289 254 224 236 7 243 255 256 98 87 123 136 118 96 138 199 122 17 337 77 139 76 145 201 69 235 224 138 147 162 223 238 306 70 204 196 167 186 209 176 42 71 198 206 134 130 95 87 87 87 122 238 248 239 275 250 178 166 241 279 173 141 141 215 222 236 246 250 245 252 265 253 215 201 204
256 253 252 271 299 300 295 296 283 297 320 325 319 307 248 232 225 208 231 245 261 93 77 133 168 151 130 154 206 194 186 282 73 103 106 140 120 35 316 249 104 152 166 269 261 256 100 80 299 209 200 168 104 72 21 12 117 141 148 109 96 114 94 112 245 148 258 259 222 181 181 212 274 182 142 148 177 198 215 233 250 253 254 259 252 218 194 196
253 241 235 249 267 268 284 286 274 331 342 327 331 341 206 223 185 226 233 240 332 177 142 161 151 139 160 175 193 163 180 231 140 168 175 151 158 135 171 195 154 169 223 247 248 213 141 168 213 204 127 109 111 92 53 58 115 156 163 154 204 222 158 178 168 148 243 256 191 180 190 203 239 233 144 148 179 198 212 223 236 244 248 251 243 206 186 192
248 238 227 236 248 244 244 240 264 322 323 332 6 146 183 216 223 227 217 64 240 197 157 164 164 171 185 197 15 144 162 193 171 188 181 161 186 184 203 203 163 197 232 221 228 201 190 201 157 111 234 181 159 124 94 102 180 201 177 164 229 266 270 245 223 188 234 253 126 120 183 215 241 251 220 212 219 219 224 228 234 238 241 253 247 179 176 184
237 235 225 227 233 230 230 236 257 296 313 346 53 155 135 233 234 181 158 188 221 163 99 107 113 154 157 160 199 160 161 195 162 183 192 160 200 212 239 250 194 260 253 184 202 211 242 239 138 165 224 193 187 186 188 186 181 192 183 173 211 232 260 256 245 241 257 258 140 129 162 242 263 258 223 220 222 216 215 228 238 245 248 263 355 106 187 191
230 228 224 223 229 230 225 229 235 250 318 65 173 142 168 232 238 128 175 207 219 38 56 74 97 135 157 186 196 175 207 211 154 169 192 165 198 222 226 223 211 253 341 159 202 193 242 264 169 173 168 169 189 203 112 122 152 190 184 174 227 208 215 253 264 274 288 306 218 168 188 244 276 290 210 216 221 213 214 229 230 243 251 246 61 274 237 210
231 226 225 220 221 223 214 213 221 207 148 130 162 173 208 228 212 122 200 189 148 58 55 27 119 153 209 224 205 214 228 222 142 156 192 187 203 208 195 200 191 172 151 199 204 166 239 266 166 146 310 174 182 183 67 113 147 181 90 165 242 216 212 255 298 300 311 314 264 186 218 250 245 98 174 163 200 208 225 238 225 237 244 220 207 238 228 218
228 223 224 214 213 214 204 204 209 184 152 137 171 214 227 238 126 146 214 148 165 150 118 245 172 171 230 213 206 228 222 227 158 169 206 210 226 214 175 200 185 179 188 190 185 183 231 272 115 126 260 187 183 170 143 191 173 149 164 199 202 45 228 239 265 79 99 279 269 217 250 270 264 222 178 160 194 206 219 230 218 229 239 226 225 232 216 211
220 216 217 210 209 206 196 197 196 180 156 142 196 220 229 236 189 182 184 131 154 139 153 219 200 177 218 217 207 191 168 199 175 183 209 198 228 198 176 226 187 187 204 204 217 228 221 264 190 176 220 139 335 320 109 340 20 140 190 197 133 67 308 247 263 327 254 265 275 267 269 277 273 259 155 165 209 221 224 223 211 224 241 237 234 236 227 211
215 212 219 213 206 197 188 189 183 174 160 167 217 229 223 206 195 178 163 140 144 170 188 225 210 177 207 221 208 162 167 191 163 178 216 196 223 174 162 204 188 191 210 208 228 254 193 244 236 185 12 70 359 269 157 65 350 89 267 206 112 204 188 161 210 247 254 258 276 279 279 277 257 242 160 177 202 215 224 219 205 223 233 231 233 238 236 218
211 210 235 211 197 189 182 179 173 170 174 186 221 233 221 211 209 182 182 172 161 176 203 229 223 205 217 202 173 157 179 195 165 179 216 195 215 172 159 188 194 201 207 194 201 230 149 231 245 21 346 78 83 233 193 178 164 34 302 198 286 266 187 180 188 206 246 254 276 284 284 277 239 181 172 186 195 206 215 207 207 223 225 222 227 231 230 221
200 217 254 185 184 182 175 169 165 177 194 203 221 225 197 223 220 212 214 202 191 189 214 227 214 218 228 191 184 196 197 217 194 195 221 195 219 212 177 182 176 189 194 182 203 214 103 226 236 143 308 227 197 203 198 192 175 173 196 183 183 191 104 280 245 184 234 247 256 271 277 276 248 120 156 169 177 195 194 195 208 218 224 224 222 224 227 225
188 243 201 169 174 171 164 163 173 187 200 222 229 225 200 219 217 214 218 200 222 261 221 224 214 222 230 216 217 185 187 230 212 205 232 206 217 226 188 187 163 129 120 154 214 211 154 207 221 188 202 226 224 203 190 206 179 178 189 183 184 177 157 217 233 203 178 238 238 236 268 273 265 102 120 131 148 189 183 194 207 209 221 224 218 223 225 225
203 251 167 166 169 163 158 176 197 186 211 223 222 225 202 206 213 201 181 168 211 264 248 235 223 223 230 223 213 179 185 220 208 209 237 220 220 223 187 178 158 140 134 153 204 205 146 157 218 223 224 229 246 79 111 290 2 189 218 198 186 180 180 203 222 211 170 229 247 233 268 270 256 92 89 139 160 186 184 194 203 204 217 217 212 222 224 226
226 254 157 169 169 162 160 201 193 196 228 225 223 227 186 195 230 207 186 180 191 201 208 224 211 217 231 219 195 189 196 212 202 193 229 246 230 222 175 144 147 147 145 157 174 153 110 146 219 238 251 251 60 86 113 217 147 197 230 206 190 199 202 205 222 220 188 216 221 176 243 260 267 78 319 230 172 192 197 199 209 207 214 221 216 220 223 228
200 203 132 177 176 169 171 200 194 207 221 228 243 231 208 224 231 219 198 189 194 194 207 222 215 216 225 200 199 207 192 208 220 198 213 242 239 192 155 154 160 176 196 188 175 166 175 192 199 222 248 250 236 188 166 180 198 216 225 196 196 207 209 221 335 252 235 231 221 201 236 252 266 49 267 214 158 212 197 182 218 220 205 216 221 225 228 229
169 136 43 193 191 190 202 207 200 211 213 220 228 224 226 241 233 230 224 213 213 206 211 227 212 200 207 194 217 221 195 214 233 214 214 234 244 128 181 177 179 195 211 194 170 174 186 191 188 204 223 225 234 236 209 149 190 222 220 191 195 201 203 208 210 212 233 233 219 215 242 254 277 286 269 247 241 255 222 166 202 224 221 225 227 230 229 227
205 192 117 191 213 229 258 263 259 232 214 219 222 217 225 234 243 235 222 225 228 217 231 286 179 194 214 208 225 235 223 224 228 229 235 233 215 56 229 200 198 207 226 134 172 173 176 199 199 212 225 225 238 250 242 116 159 201 197 191 198 205 205 205 216 223 225 216 214 230 243 253 267 273 274 271 267 268 266 240 219 211 211 219 227 234 230 226
239 214 170 165 213 238 252 261 255 243 217 206 198 196 217 227 242 230 202 214 217 206 217 258 220 215 221 215 224 237 233 227 223 231 242 242 229 51 28 238 248 286 3 323 208 170 163 223 215 222 234 236 243 253 249 188 182 205 197 193 203 209 206 210 224 222 169 114 237 239 243 252 258 262 269 272 270 271 277 275 264 238 219 212 216 230 231 231
234 231 174 176 191 203 216 228 228 226 224 207 195 206 219 223 228 225 211 193 187 191 197 225 223 224 229 224 223 234 235 232 230 232 241 248 244 222 73 202 232 327 69 271 299 162 189 233 227 229 240 241 243 253 254 240 218 215 207 201 204 209 207 212 224 220 178 208 239 243 247 255 258 256 260 267 272 275 278 277 269 247 239 237 229 230 227 220
236 257 212 203 208 194 202 213 217 219 221 219 215 218 224 227 225 223 211 146 171 204 201 216 225 224 230 230 227 234 234 233 239 236 237 246 235 202 221 239 225 70 156 214 253 193 200 231 232 236 247 247 246 252 253 251 249 243 230 213 213 219 213 212 226 226 216 228 242 253 258 261 263 262 264 272 279 281 282 282 275 257 254 263 265 259 252 233
248 276 263 226 232 206 205 215 216 218 220 219 222 221 226 233 232 228 210 187 205 210 197 217 231 229 230 230 226 235 234 231 241 243 234 234 224 197 219 231 191 83 187 212 227 242 227 223 231 243 252 251 251 254 254 254 253 251 250 244 241 239 226 216 229 230 225 238 252 262 268 269 265 264 267 269 272 277 279 277 274 267 264 271 273 269 265 256
278 294 304 283 255 198 199 211 206 213 218 212 217 223 227 233 231 232 230 212 216 220 202 212 229 235 233 216 213 230 233 231 236 240 240 239 220 193 216 215 178 159 193 209 202 214 224 224 233 246 254 248 245 251 256 258 262 262 258 250 248 248 243 234 235 231 222 234 248 255 261 259 254 256 258 255 257 262 264 265 264 262 266 274 272 264 263 262
301 301 303 296 280 196 203 217 206 209 214 207 214 219 221 226 226 228 239 225 218 228 224 215 223 233 230 215 219 227 231 233 236 241 247 248 183 178 211 208 195 189 191 206 204 181 198 213 224 233 245 247 244 250 257 263 285 257 240 240 244 250 252 249 248 242 231 229 242 249 248 249 253 254 252 250 249 248 250 254 256 262 272 274 262 259 265 269
Height
848 847 846 845 844 844 843 842 842 841 841 839 839 838 837 836 835 834 833 831 831 829 829 828 828 827 826 826 826 826 825 825 824 824 823 821 821 821 821 821 820 820 819 819 819 819 819 819 819 819 819 820 823 823 825 825 825 825 825 829 828 827 827 822 823 823 820 819 821 827 825 822 824 830 833 833 833 832 833 833 831 831 831 832 833 834 836 836
847 847 846 845 844 844 843 842 841 841 840 839 839 838 837 836 835 834 833 832 830 829 829 828 828 827 826 826 825 825 825 824 823 822 820 821 821 820 820 820 820 819 819 819 818 818 818 818 818 818 819 821 824 823 824 826 826 825 826 828 825 822 821 819 819 819 820 820 820 823 824 823 821 824 830 829 827 830 832 829 830 831 828 829 832 834 836 836
847 847 846 845 844 844 843 842 841 841 840 839 838 837 837 836 835 834 833 832 830 829 828 827 827 826 826 825 825 825 824 824 823 820 818 819 820 820 820 819 819 819 818 818 818 818 817 816 817 818 820 821 824 824 823 825 825 826 827 825 821 820 819 819 820 819 820 821 821 823 825 826 822 822 827 825 824 828 825 821 825 827 822 823 828 832 834 835
847 846 845 845 844 843 842 842 841 840 839 839 838 837 836 835 835 834 833 832 830 829 828 827 826 825 826 824 825 825 824 826 823 817 816 818 819 819 819 819 819 818 818 818 818 817 817 817 817 818 820 822 825 825 823 825 826 826 825 821 820 824 821 817 819 820 822 823 821 822 827 828 823 824 825 823 823 822 816 811 813 815 813 817 824 829 831 832
847 846 845 844 843 843 842 841 840 840 839 838 837 836 835 835 834 833 832 831 830 829 827 827 826 825 825 824 825 824 826 829 821 814 816 817 818 818 818 818 818 817 817 817 817 817 817 817 817 819 820 822 825 824 823 825 826 825 822 820 823 826 822 817 820 822 825 826 824 824 826 823 823 825 823 821 819 809 805 805 805 806 807 812 819 824 827 829
847 846 845 844 843 842 841 841 840 839 838 837 836 835 834 834 833 832 831 830 829 828 827 826 825 825 824 824 824 823 827 828 818 814 816 816 817 817 817 817 817 817 817 817 817 817 817 817 818 820 821 822 825 823 823 826 827 823 819 822 824 825 822 818 821 825 826 825 823 823 821 821 823 821 819 819 810 801 803 805 805 806 807 810 815 820 823 824
846 845 845 844 843 841 841 840 839 838 837 836 835 834 833 832 832 831 830 829 828 827 826 825 824 824 824 824 824 824 827 822 814 815 816 816 817 816 816 817 816 816 816 816 816 816 816 817 818 821 822 822 824 823 824 826 827 823 819 820 823 826 823 820 823 826 827 824 822 824 822 821 820 818 820 815 803 800 804 805 807 807 808 810 813 816 817 818
845 845 843 843 842 841 840 839 838 838 836 835 834 834 832 831 831 830 829 828 827 826 825 824 824 824 824 824 824 826 826 819 814 815 815 815 816 816 816 816 816 816 816 815 815 815 816 818 819 821 821 821 821 822 826 826 824 823 819 818 823 826 822 822 826 826 827 825 825 827 821 818 817 820 821 808 798 800 803 804 808 808 809 810 811 812 814 816
844 844 843 842 841 840 839 838 837 836 835 834 833 832 831 830 829 828 827 827 826 825 824 823 823 823 824 823 824 827 822 815 814 815 815 815 815 815 815 815 815 815 815 815 815 814 815 818 819 819 819 821 821 821 826 824 820 819 818 819 821 821 819 822 823 824 827 825 826 825 818 817 820 823 813 796 795 798 798 803 805 807 808 808 808 809 811 812
844 843 842 841 840 839 838 837 836 835 834 833 832 831 830 829 828 827 826 825 824 823 822 822 822 822 823 823 826 827 818 813 815 814 815 815 815 815 814 815 815 814 815 814 814 813 814 815 816 817 818 821 822 823 826 823 820 819 820 821 821 820 820 823 822 823 826 823 824 822 815 815 821 824 805 789 796 797 797 802 803 805 806 805 806 806 808 809
843 842 841 840 839 838 837 836 835 834 833 831 831 830 829 828 826 825 824 823 822 821 821 821 821 821 822 822 826 823 815 814 815 814 815 815 814 815 814 814 814 814 814 813 814 813 813 814 815 817 818 820 821 825 826 824 823 823 825 823 822 822 820 821 821 822 823 820 822 821 817 816 822 822 799 789 799 798 798 801 803 804 802 802 803 804 806 806
841 841 840 839 838 837 836 835 834 833 831 830 829 828 828 826 824 824 822 821 821 820 819 820 820 820 821 822 821 817 813 814 814 814 815 814 814 814 814 814 813 814 813 813 814 813 813 814 814 817 819 819 821 824 824 825 827 827 827 821 818 819 816 816 818 822 821 818 819 821 817 812 815 808 788 789 798 798 799 799 801 802 800 800 801 802 803 804
840 839 838 837 836 836 835 834 833 832 830 829 828 827 827 825 823 822 821 820 819 819 818 819 819 819 821 821 816 813 813 814 814 814 814 814 815 814 814 814 813 814 813 813 813 813 814 814 814 817 819 819 821 824 823 826 829 826 826 823 817 816 813 814 820 822 821 818 819 822 812 795 794 791 782 790 797 797 799 796 797 799 798 799 799 800 800 801
839 838 837 836 835 834 833 833 832 830 829 828 827 826 825 823 823 821 820 819 818 818 818 818 819 819 821 817 812 812 813 813 813 813 813 813 814 814 814 814 813 814 813 813 813 814 814 814 816 817 820 821 822 825 824 826 827 824 826 825 824 818 811 814 821 820 817 820 819 821 815 790 780 782 781 788 793 795 795 791 792 794 796 797 797 798 797 798
838 837 836 834 833 833 832 831 830 829 827 826 825 825 824 822 821 820 819 818 817 818 817 818 818 819 820 815 811 812 812 812 812 812 813 813 813 814 814 814 814 814 814 814 814 815 815 815 816 817 822 825 824 824 821 822 823 824 823 820 823 822 811 811 819 817 813 819 821 820 813 790 778 779 781 790 792 793 793 787 787 789 792 794 794 795 794 795
838 836 835 834 833 831 830 830 829 827 826 824 824 823 823 821 820 819 818 817 818 818 817 819 818 819 820 815 812 812 811 811 810 811 811 811 812 813 814 814 815 814 815 815 815 816 816 816 820 823 824 823 822 821 819 821 820 822 822 816 816 819 812 809 816 820 816 817 819 817 808 789 778 778 785 794 794 793 793 786 783 784 787 790 790 791 791 792
837 836 834 833 832 830 829 828 827 826 824 823 822 821 821 820 818 817 817 817 817 817 818 817 817 818 817 813 812 810 808 808 808 809 810 811 812 812 814 814 815 816 815 816 816 816 816 818 824 824 821 822 822 820 825 826 817 817 823 818 813 814 813 808 810 819 822 819 815 814 811 794 779 777 782 790 792 793 791 783 779 779 782 784 786 786 786 788
837 835 834 832 831 829 828 827 826 824 822 821 821 820 819 818 817 817 816 816 817 818 819 817 818 821 817 810 809 807 805 806 807 808 809 810 811 812 813 813 815 816 816 817 817 817 817 819 823 821 820 824 822 820 825 822 810 811 817 815 812 812 813 809 807 813 819 820 815 812 811 797 781 776 775 779 787 788 783 777 773 772 776 778 780 781 781 782
836 834 833 832 830 828 827 826 825 823 821 820 820 819 817 816 815 815 815 816 817 816 817 815 815 817 814 807 806 805 805 806 807 808 809 810 811 812 812 813 814 815 818 819 817 818 819 820 824 823 819 816 813 812 811 806 803 808 810 811 811 809 806 803 806 814 817 817 814 809 805 794 783 777 772 771 779 783 777 772 768 766 769 771 773 774 776 777
835 834 833 831 829 828 826 826 824 823 821 819 818 818 816 818 818 816 815 815 813 810 811 810 808 809 807 805 805 806 806 807 808 808 809 809 810 811 812 813 814 816 818 817 817 821 822 821 820 814 805 802 804 803 803 805 809 811 813 815 813 810 804 797 806 819 819 815 805 798 799 793 783 776 771 769 773 776 772 768 763 761 763 765 766 767 769 771
835 834 832 831 829 827 826 825 823 822 821 820 819 818 818 820 821 819 817 813 808 807 807 807 808 806 803 803 804 804 805 806 807 807 808 808 809 811 811 812 815 816 816 818 821 823 824 822 811 798 795 798 803 804 808 812 815 814 814 815 812 810 804 798 810 821 821 818 803 795 799 792 783 776 768 768 770 766 760 759 756 753 756 758 759 761 763 766
834 832 831 830 828 827 825 824 823 821 821 820 820 819 819 820 820 819 820 815 808 806 808 807 808 806 802 802 803 803 805 805 805 805 806 809 810 810 809 811 814 813 817 821 821 823 825 816 799 793 799 806 811 814 815 814 817 817 816 818 813 807 802 801 815 823 821 819 803 797 802 789 778 774 763 761 763 755 747 749 748 745 749 749 749 753 758 762
833 831 831 829 827 827 825 823 822 821 821 820 820 820 820 820 819 820 821 820 811 805 805 805 804 802 800 800 800 802 804 802 801 801 803 806 808 810 809 810 812 813 818 817 813 820 820 806 799 802 805 807 814 821 819 816 817 816 815 816 808 804 805 802 813 824 821 818 810 807 805 787 772 768 757 753 756 750 743 745 744 742 742 741 742 747 752 757
832 831 830 828 827 825 824 823 822 821 821 820 820 820 820 820 820 821 820 819 813 804 801 800 800 799 796 796 797 799 801 799 798 798 800 802 804 809 806 805 811 814 813 809 809 811 804 802 812 813 808 807 813 820 820 815 813 813 814 811 800 800 805 804 812 820 815 816 820 813 791 765 758 758 749 749 758 754 747 747 743 738 736 737 739 743 746 749
831 830 829 828 827 824 824 823 821 822 821 820 821 819 820 820 820 822 820 818 814 805 800 798 797 795 792 794 796 796 799 797 796 797 799 799 801 805 805 806 808 807 805 808 814 810 800 807 815 812 813 813 811 814 814 810 809 810 810 805 799 799 804 811 818 819 810 808 816 815 787 754 748 753 746 746 754 750 749 748 738 730 731 735 738 739 742 744
830 829 828 827 826 823 823 821 821 822 819 820 821 819 821 820 820 821 819 820 815 802 798 795 792 790 789 794 796 797 799 796 796 798 798 799 799 800 803 806 807 806 806 811 815 808 804 814 815 808 813 815 812 810 807 809 809 807 808 806 805 806 809 816 821 818 808 803 811 817 802 771 751 747 741 740 745 742 743 742 731 723 722 728 734 735 738 740
828 828 827 826 825 824 822 822 822 820 820 821 820 820 821 819 821 821 819 823 810 790 791 794 791 788 789 794 795 795 797 796 797 799 798 799 799 799 800 802 806 809 811 812 811 806 806 816 819 812 811 813 811 805 802 808 807 805 814 816 811 811 816 818 819 816 808 809 813 811 810 793 762 744 736 734 740 741 739 737 730 724 717 719 727 731 733 736
826 826 826 826 825 824 823 823 822 821 821 820 819 821 820 819 822 818 823 828 803 779 784 790 789 788 789 795 795 794 797 795 794 798 799 800 799 800 799 798 800 804 810 809 802 802 806 810 813 811 812 810 805 803 803 804 803 810 823 823 816 817 819 818 816 814 814 819 812 801 811 802 761 740 742 740 742 744 739 733 727 723 718 715 720 726 729 732
824 824 824 825 824 823 823 822 822 821 820 819 820 820 818 822 820 818 834 831 792 773 782 785 788 790 791 796 796 795 797 796 794 797 800 800 799 800 801 800 800 803 809 807 797 799 808 812 810 807 806 802 801 813 815 804 803 818 827 822 821 823 821 821 817 813 821 823 805 793 805 796 750 730 747 755 750 744 736 729 722 718 718 716 716 721 726 730
822 822 823 823 822 823 822 821 821 820 820 820 820 819 819 821 819 825 839 819 782 778 786 785 787 790 792 796 795 796 797 796 798 799 800 800 799 801 803 803 803 803 807 809 803 803 812 820 816 807 802 802 809 824 827 818 815 822 822 815 819 822 821 825 820 817 822 807 787 780 786 788 757 729 735 744 738 733 727 723 718 715 716 715 715 718 723 727
820 820 821 821 821 822 820 821 820 818 820 819 818 820 819 820 824 828 821 795 779 785 785 786 791 790 790 791 790 795 797 796 799 799 798 800 800 802 803 802 803 805 807 806 802 802 810 815 810 806 808 809 812 819 827 829 826 821 813 807 812 813 814 820 820 824 819 789 775 778 778 783 765 731 725 727 724 724 720 716 713 711 712 710 710 716 720 724
818 818 818 819 819 820 819 819 818 819 819 817 819 819 817 824 824 814 801 785 781 781 778 785 792 790 791 791 789 795 797 795 797 797 796 799 800 798 795 791 794 800 800 798 796 796 799 802 801 805 812 810 803 807 820 827 824 817 809 808 812 809 809 810 807 810 802 778 780 791 785 776 751 723 722 724 720 721 718 714 710 707 709 707 708 715 720 724
815 815 816 816 816 817 817 817 817 819 818 818 820 815 820 828 809 789 789 784 777 777 777 784 789 791 792 790 790 796 796 793 795 797 796 798 800 796 791 789 791 791 789 792 797 795 791 795 803 802 802 802 795 792 801 809 815 812 802 804 807 808 815 808 793 793 786 772 782 797 789 769 739 716 715 714 710 711 712 713 710 708 709 708 712 719 722 724
812 813 813 813 813 814 815 816 816 817 817 818 817 816 825 822 790 775 782 777 773 780 783 786 791 792 791 788 789 792 788 787 791 795 796 799 801 796 790 790 792 790 790 794 795 795 788 782 788 791 788 791 789 784 786 792 805 807 797 799 799 797 802 795 781 780 775 767 780 796 781 748 725 712 703 701 702 704 707 707 708 711 712 713 719 723 723 723
808 809 809 809 811 811 811 814 814 815 817 816 816 820 817 797 777 778 779 773 776 782 786 791 792 790 790 789 790 788 780 780 788 793 794 793 790 785 781 780 786 789 790 792 790 793 789 774 780 794 793 791 789 788 791 790 798 806 803 803 799 788 785 786 787 791 793 786 779 781 759 718 706 710 705 706 705 703 707 706 708 712 710 712 718 719 720 720
804 804 805 804 804 806 809 812 813 814 815 815 819 817 797 774 772 778 772 769 775 777 784 791 788 787 789 786 788 787 781 782 789 790 788 788 781 777 777 771 775 781 778 779 781 783 782 777 788 801 796 795 795 791 793 787 787 803 806 798 795 792 784 784 795 803 809 797 764 750 740 712 704 708 703 705 704 703 708 707 707 710 705 708 712 712 714 716
800 800 799 796 796 802 806 809 812 815 814 815 814 800 778 767 768 769 767 770 772 771 777 780 776 778 780 777 779 782 783 784 789 784 780 782 773 766 773 768 766 770 764 762 768 768 768 772 788 797 788 797 808 800 795 792 788 795 796 787 788 796 792 789 796 797 799 792 756 732 730 715 707 709 707 708 707 706 705 702 704 708 706 707 707 705 706 708
794 795 791 787 789 796 802 806 809 812 814 814 804 783 769 765 762 761 764 768 768 769 773 772 767 768 769 769 770 778 783 779 782 782 774 772 761 751 761 763 760 763 755 756 763 764 766 768 783 801 796 798 811 801 791 794 795 792 790 787 785 788 790 795 800 791 785 785 759 731 724 708 693 698 704 706 705 702 699 698 703 706 704 704 703 701 702 704
790 791 783 777 783 792 797 802 805 809 811 808 796 778 766 762 760 760 760 759 762 766 767 764 763 763 762 763 764 772 778 771 772 776 766 761 756 746 748 750 752 756 753 758 763 762 766 766 773 800 807 799 802 797 784 785 796 799 794 791 788 782 780 784 787 779 772 774 762 743 724 692 669 675 684 688 692 692 693 697 701 701 698 698 698 698 699 701
785 786 776 769 778 787 792 798 803 806 803 792 780 771 765 762 760 759 757 757 759 759 759 757 759 761 760 762 763 764 769 766 765 767 760 755 751 744 744 743 745 754 757 760 762 760 768 769 766 791 810 797 782 777 768 762 775 789 787 784 786 785 784 783 780 773 770 769 765 761 735 682 658 668 671 674 682 684 688 693 694 695 693 692 693 694 695 697
779 779 771 769 775 781 789 797 798 798 793 780 767 763 764 761 758 756 757 759 759 756 756 756 756 756 754 758 761 761 765 766 764 763 758 752 746 740 738 736 738 752 761 766 765 761 765 767 763 776 790 777 758 754 756 752 753 762 765 765 768 772 778 782 778 774 777 768 752 757 741 685 660 671 671 673 680 679 684 688 686 688 688 688 691 691 693 695
777 773 768 769 772 775 783 787 784 785 783 770 758 756 758 758 756 756 756 759 761 760 759 757 755 753 751 750 753 756 760 760 759 760 754 746 741 735 732 734 737 742 750 758 760 755 756 760 761 761 756 751 754 762 768 764 755 754 756 753 753 757 761 764 763 763 774 769 750 757 750 692 659 671 674 675 680 679 682 684 682 683 683 686 690 690 693 695
775 772 770 771 769 770 777 780 778 779 773 760 753 753 755 755 755 756 755 756 759 759 758 756 752 751 749 747 749 753 754 751 749 751 751 745 737 731 731 737 740 739 741 748 752 754 757 759 760 757 745 741 756 769 772 768 760 756 754 751 751 750 745 746 750 750 755 754 746 759 756 702 662 668 673 674 679 681 683 685 683 682 683 686 689 691 693 694
771 773 775 775 771 768 769 769 769 771 767 761 758 756 754 755 754 752 752 752 751 751 750 748 746 746 745 745 747 747 747 747 742 741 743 740 733 732 733 734 737 737 734 735 738 744 752 754 756 762 757 749 750 755 760 767 763 751 747 748 748 746 745 748 755 759 753 737 729 743 738 695 665 667 671 675 679 679 682 688 686 684 684 687 688 689 690 691
769 773 775 775 774 769 762 756 756 759 760 761 760 757 755 754 749 746 747 747 744 744 743 741 742 744 742 744 745 743 743 743 738 736 737 732 730 735 736 731 730 728 725 725 727 731 738 741 744 753 756 749 740 729 729 745 755 750 746 748 745 744 746 746 750 755 744 723 721 730 714 683 670 668 665 669 673 671 675 684 687 687 687 687 686 685 685 687
765 767 773 777 775 770 762 756 756 756 753 755 758 756 756 753 745 743 746 745 742 743 745 743 743 743 742 743 744 741 739 738 736 734 731 726 726 734 739 735 728 726 728 729 728 730 732 730 727 728 728 724 719 710 707 721 737 742 742 744 741 738 737 738 739 735 724 720 723 717 699 688 686 677 665 663 666 665 667 674 679 681 683 685 685 683 682 683
760 757 763 771 771 770 767 761 758 755 749 749 751 748 747 747 745 745 746 742 738 742 746 744 743 743 741 741 741 735 731 733 735 733 726 721 724 733 742 743 737 734 734 733 731 731 732 728 721 717 713 708 705 701 701 711 721 724 729 736 736 734 736 738 729 713 711 724 721 699 690 697 695 682 669 662 662 664 665 667 668 668 672 677 678 679 680 681
755 749 747 750 752 757 760 754 750 750 747 745 742 737 736 739 740 740 740 739 738 740 744 744 742 740 735 732 733 730 727 729 732 730 724 721 725 731 736 739 740 740 738 736 736 734 731 727 720 716 713 708 704 701 698 703 711 714 718 723 726 728 730 728 718 707 710 715 702 686 687 692 688 677 666 659 660 662 662 661 662 662 665 668 670 672 674 675
751 746 744 743 739 739 740 737 738 744 745 743 741 735 732 731 729 727 730 739 743 739 738 737 733 730 727 725 727 729 730 730 727 724 722 722 724 729 732 731 736 742 741 737 737 736 732 726 719 717 715 710 708 705 699 702 710 712 714 717 718 716 714 715 713 710 707 699 688 686 689 685 676 667 661 659 658 658 657 657 657 657 658 661 663 663 662 664
749 744 743 741 736 734 735 733 736 741 741 742 741 735 730 727 723 721 722 729 734 733 732 729 722 717 719 723 729 730 727 723 720 716 716 719 723 727 728 725 728 740 744 738 736 737 733 725 717 715 717 714 710 705 702 704 709 710 713 715 709 702 704 710 710 707 705 700 694 695 697 689 673 662 661 660 656 655 657 655 651 649 648 652 657 656 654 653
749 745 743 741 735 732 733 732 732 735 736 737 735 730 727 723 720 718 715 713 715 718 719 719 715 712 716 724 729 726 716 713 713 711 711 715 720 723 725 724 725 734 742 739 736 736 735 729 722 720 722 718 710 706 706 708 714 720 720 710 696 690 693 694 691 692 697 699 698 699 698 685 665 657 658 656 651 653 654 649 644 640 641 648 653 649 645 645
750 747 745 743 736 728 726 725 725 725 723 723 721 718 716 713 711 715 715 710 706 706 706 709 711 713 718 722 719 710 704 704 707 708 710 714 718 719 722 724 723 728 734 736 734 733 732 729 723 724 726 719 710 709 710 717 729 729 710 691 684 685 684 678 674 675 680 686 691 690 679 663 652 650 652 648 646 647 645 640 636 635 640 646 644 639 637 637